TimeCST,TemperatureF,Dew PointF,Humidity,Sea Level PressureIn,VisibilityMPH,Wind Direction,Wind SpeedMPH,Gust SpeedMPH,PrecipitationIn,Events,Conditions,WindDirDegrees,DateUTC
12:15 AM,-19.3,-24.9,76,30.30,10.0,Calm,Calm,-,N/A,,Clear,0,2014-02-03 06:15:00
12:35 AM,-19.5,-25.2,75,30.30,10.0,Calm,Calm,-,N/A,,Clear,0,2014-02-03 06:35:00
12:55 AM,-19.5,-24.0,80,30.29,10.0,Calm,Calm,-,N/A,,Clear,0,2014-02-03 06:55:00
1:15 AM,-20.2,-25.8,75,30.29,10.0,Calm,Calm,-,N/A,,Clear,0,2014-02-03 07:15:00
1:35 AM,-20.9,-26.9,74,30.28,10.0,Calm,Calm,-,N/A,,Clear,0,2014-02-03 07:35:00
1:55 AM,-21.1,-27.0,74,30.29,10.0,Calm,Calm,-,N/A,,Clear,0,2014-02-03 07:55:00
2:15 AM,-20.6,-26.7,73,30.29,10.0,Calm,Calm,-,N/A,,Clear,0,2014-02-03 08:15:00
2:35 AM,-21.5,-27.6,73,30.30,10.0,Calm,Calm,-,N/A,,Clear,0,2014-02-03 08:35:00
2:55 AM,-21.5,-27.4,74,30.30,10.0,Calm,Calm,-,N/A,,Clear,0,2014-02-03 08:55:00
3:15 AM,-21.8,-27.9,73,30.29,10.0,Calm,Calm,-,N/A,,Clear,0,2014-02-03 09:15:00
3:35 AM,-22.2,-28.1,74,30.29,10.0,Calm,Calm,-,N/A,,Clear,0,2014-02-03 09:35:00
3:55 AM,-22.2,-28.3,73,30.28,10.0,Calm,Calm,-,N/A,,Clear,0,2014-02-03 09:55:00
4:15 AM,-21.5,-27.2,75,30.28,10.0,Calm,Calm,-,N/A,,Clear,0,2014-02-03 10:15:00
4:35 AM,-22.0,-28.3,73,30.28,10.0,Calm,Calm,-,N/A,,Clear,0,2014-02-03 10:35:00
4:55 AM,-22.0,-28.1,73,30.28,10.0,Calm,Calm,-,N/A,,Clear,0,2014-02-03 10:55:00
5:15 AM,-22.2,-28.3,73,30.28,10.0,Calm,Calm,-,N/A,,Clear,0,2014-02-03 11:15:00
5:35 AM,-21.6,-27.9,73,30.27,10.0,Calm,Calm,-,N/A,,Clear,0,2014-02-03 11:35:00
5:55 AM,-22.4,-28.3,74,30.27,10.0,Calm,Calm,-,N/A,,Clear,0,2014-02-03 11:55:00
6:15 AM,-22.5,-28.7,73,30.27,10.0,Calm,Calm,-,N/A,,Clear,0,2014-02-03 12:15:00
6:35 AM,-22.0,-28.3,73,30.26,10.0,Calm,Calm,-,N/A,,Clear,0,2014-02-03 12:35:00
6:55 AM,-22.2,-28.3,73,30.27,10.0,Calm,Calm,-,N/A,,Clear,0,2014-02-03 12:55:00
7:15 AM,-22.0,-28.3,73,30.27,10.0,Calm,Calm,-,N/A,,Clear,0,2014-02-03 13:15:00
7:35 AM,-21.5,-26.9,76,30.28,10.0,Calm,Calm,-,N/A,,Clear,0,2014-02-03 13:35:00
7:55 AM,-20.6,-27.0,72,30.27,10.0,Calm,Calm,-,N/A,,Clear,0,2014-02-03 13:55:00
8:15 AM,-18.9,-25.2,73,30.27,10.0,Calm,Calm,-,N/A,,Clear,0,2014-02-03 14:15:00
8:35 AM,-17.0,-24.3,69,30.26,10.0,Calm,Calm,-,N/A,,Clear,0,2014-02-03 14:35:00
8:55 AM,-11.4,-18.0,72,30.26,10.0,Calm,Calm,-,N/A,,Clear,0,2014-02-03 14:55:00
9:15 AM,-7.2,-14.3,71,30.26,10.0,Calm,Calm,-,N/A,,Clear,0,2014-02-03 15:15:00
9:55 AM,4.3,-4.9,66,30.27,10.0,Calm,Calm,-,N/A,,Clear,0,2014-02-03 15:55:00
10:15 AM,12.2,1.2,61,30.27,10.0,SSW,8.1,-,N/A,,Clear,210,2014-02-03 16:15:00
10:35 AM,15.8,2.1,55,30.27,10.0,SW,6.9,-,N/A,,Clear,220,2014-02-03 16:35:00
10:55 AM,17.1,2.7,53,30.27,10.0,SSW,6.9,-,N/A,,Clear,210,2014-02-03 16:55:00
11:15 AM,18.7,3.7,52,30.26,10.0,SSW,8.1,-,N/A,,Clear,200,2014-02-03 17:15:00
11:35 AM,19.6,4.1,51,30.26,10.0,SW,6.9,-,N/A,,Clear,220,2014-02-03 17:35:00
11:55 AM,20.7,4.6,50,30.26,10.0,SSW,8.1,-,N/A,,Clear,210,2014-02-03 17:55:00
12:15 PM,21.6,5.2,49,30.25,10.0,SSW,8.1,-,N/A,,Clear,200,2014-02-03 18:15:00
12:35 PM,22.6,6.1,49,30.24,10.0,SW,6.9,-,N/A,,Clear,220,2014-02-03 18:35:00
12:55 PM,23.0,5.9,48,30.23,10.0,SSW,6.9,-,N/A,,Clear,210,2014-02-03 18:55:00
1:15 PM,23.0,6.1,48,30.22,10.0,South,9.2,-,N/A,,Clear,170,2014-02-03 19:15:00
1:35 PM,21.9,6.6,52,30.22,10.0,South,9.2,-,N/A,,Clear,180,2014-02-03 19:35:00
1:55 PM,23.5,6.6,49,30.22,10.0,SW,10.4,-,N/A,,Clear,220,2014-02-03 19:55:00
2:15 PM,23.9,6.4,47,30.22,10.0,SSW,5.8,-,N/A,,Clear,210,2014-02-03 20:15:00
2:55 PM,23.9,6.3,47,30.24,10.0,SSW,6.9,-,N/A,,Clear,200,2014-02-03 20:55:00
3:15 PM,23.2,6.3,48,30.24,10.0,SSW,5.8,-,N/A,,Clear,200,2014-02-03 21:15:00
3:35 PM,23.0,6.6,50,30.24,10.0,Calm,Calm,-,N/A,,Clear,0,2014-02-03 21:35:00
3:55 PM,23.0,7.3,51,30.24,10.0,SW,6.9,-,N/A,,Clear,220,2014-02-03 21:55:00
4:15 PM,23.5,7.7,51,30.24,10.0,SW,6.9,-,N/A,,Clear,230,2014-02-03 22:15:00
4:35 PM,22.1,7.5,54,30.25,10.0,SSW,8.1,-,N/A,,Clear,210,2014-02-03 22:35:00
4:55 PM,21.2,7.5,56,30.26,10.0,SW,6.9,-,N/A,,Clear,220,2014-02-03 22:55:00
5:15 PM,20.3,7.5,58,30.27,10.0,Calm,Calm,-,N/A,,Clear,0,2014-02-03 23:15:00
5:35 PM,19.9,7.5,59,30.27,10.0,SW,4.6,-,N/A,,Clear,220,2014-02-03 23:35:00
5:55 PM,19.0,7.3,60,30.27,10.0,Calm,Calm,-,N/A,,Clear,0,2014-02-03 23:55:00
6:15 PM,18.1,7.2,62,30.28,10.0,WSW,3.5,-,N/A,,Clear,240,2014-02-04 00:15:00
6:35 PM,17.4,6.8,63,30.28,10.0,WSW,3.5,-,N/A,,Clear,240,2014-02-04 00:35:00
6:55 PM,16.9,6.8,65,30.29,10.0,Calm,Calm,-,N/A,,Clear,0,2014-02-04 00:55:00
7:15 PM,16.0,6.4,66,30.29,10.0,Calm,Calm,-,N/A,,Clear,0,2014-02-04 01:15:00
7:35 PM,14.7,5.9,68,30.29,10.0,WSW,3.5,-,N/A,,Clear,250,2014-02-04 01:35:00
7:55 PM,14.0,5.9,70,30.30,10.0,WSW,3.5,-,N/A,,Clear,240,2014-02-04 01:55:00
8:15 PM,12.7,5.7,74,30.30,10.0,Calm,Calm,-,N/A,,Clear,0,2014-02-04 02:15:00
8:35 PM,8.1,3.2,81,30.30,10.0,Calm,Calm,-,N/A,,Clear,0,2014-02-04 02:35:00
8:55 PM,8.6,4.1,82,30.31,10.0,Calm,Calm,-,N/A,,Clear,0,2014-02-04 02:55:00
9:15 PM,4.1,0.1,84,30.31,10.0,Calm,Calm,-,N/A,,Clear,0,2014-02-04 03:15:00
9:35 PM,3.6,0.5,87,30.31,10.0,Calm,Calm,-,N/A,,Clear,0,2014-02-04 03:35:00
9:55 PM,1.9,-0.9,88,30.31,10.0,Calm,Calm,-,N/A,,Clear,0,2014-02-04 03:55:00
10:15 PM,1.2,-1.8,87,30.32,10.0,Calm,Calm,-,N/A,,Clear,0,2014-02-04 04:15:00
10:35 PM,-0.8,-4.4,85,30.32,10.0,Calm,Calm,-,N/A,,Clear,0,2014-02-04 04:35:00
10:55 PM,0.7,-2.4,87,30.33,10.0,Calm,Calm,-,N/A,,Clear,0,2014-02-04 04:55:00
11:15 PM,1.9,-2.2,83,30.33,10.0,Calm,Calm,-,N/A,,Clear,0,2014-02-04 05:15:00
11:35 PM,2.3,-1.8,83,30.33,10.0,Calm,Calm,-,N/A,,Clear,0,2014-02-04 05:35:00
11:55 PM,3.7,-0.4,83,30.34,10.0,Calm,Calm,-,N/A,,Clear,0,2014-02-04 05:55:00